Weather History for OAHR - April, 2014

Change the Weather History Date:

Saturday, April 26, 2014

  Actual Average Record
Temperature  
Mean Temperature 64 °F -  
Max Temperature 77 °F 84 °F - ()
Min Temperature 50 °F 55 °F - ()
Degree Days  
Heating Degree Days 2    
Growing Degree Days 14 (Base 50)    
Moisture  
Dew Point 39 °F    
Average Humidity 43    
Maximum Humidity 82    
Minimum Humidity 18    
Precipitation  
Precipitation 0.00 in 0.02 in - ()
Sea Level Pressure  
Sea Level Pressure 30.13 in    
Wind  
Wind Speed 4 mph ()    
Max Wind Speed 9 mph    
Max Gust Speed -    
T = Trace of Precipitation, MM = Missing Value Source: Averaged Metar Reports

Daily Weather History Graph

Daily Weather History Graph

Search for Another Location

Airport or City:

Trip Planner

Search our weather history database for the weather conditions in past years. The results will help you decide how hot, cold, wet, or windy it might be!

Date:

Astronomy

Apr. 26, 2014 Rise Set
Actual Time 5:37 AM AFT 7:00 PM AFT
Civil Twilight 5:10 AM AFT 7:27 PM AFT
Nautical Twilight 4:39 AM AFT 7:59 PM AFT
Astronomical Twilight 4:06 AM AFT 8:32 PM AFT
Moon 3:37 AM AFT (4/26) 4:09 PM AFT (4/26)
Length of Visible Light 14h 16m
Length of Day
13h 23m
Waning Crescent, 10% of the Moon is Illuminated
Apr 26
Waning Crescent
Apr 29
New
May 7
First Quarter
May 14
Full
May 21
Last Quarter

Hourly Weather History & Observations

Time (AFT) Temp. Dew Point Humidity Pressure Visibility Wind Dir Wind Speed Gust Speed Precip Events Conditions
1:25 AM 55.4 °F 46.4 °F 72% 30.15 in - NE 4.6 mph - N/A   Unknown
2:24 AM 55.4 °F 46.4 °F 72% 30.15 in - SSW 3.5 mph - N/A   Unknown
3:25 AM 55.4 °F 46.4 °F 72% 30.15 in - West 2.3 mph - N/A   Unknown
4:24 AM 55.4 °F 44.6 °F 67% 30.15 in - WNW 2.3 mph - N/A   Unknown
5:25 AM 50.0 °F 44.6 °F 82% 30.15 in - SSE 3.5 mph - N/A   Unknown
6:24 AM 53.6 °F 44.6 °F 72% 30.18 in - NNW 2.3 mph - N/A   Clear
7:25 AM 55.4 °F 44.6 °F 67% 30.18 in - North 4.6 mph - N/A   Clear
8:24 AM 59.0 °F 46.4 °F 63% 30.21 in - Variable 2.3 mph - N/A   Clear
9:25 AM 64.4 °F 46.4 °F 52% 30.21 in - North 4.6 mph - N/A   Clear
10:24 AM 68.0 °F 44.6 °F 43% 30.18 in - North 5.8 mph - N/A   Clear
11:25 AM 69.8 °F 42.8 °F 38% 30.18 in - North - - N/A   Clear
12:25 PM 73.4 °F 42.8 °F 33% 30.15 in - North 6.9 mph - N/A   Clear
1:24 PM 75.2 °F 37.4 °F 25% 30.12 in - WNW 4.6 mph - N/A   Clear
2:25 PM 77.0 °F 33.8 °F 21% 30.12 in - North 9.2 mph - N/A   Clear
3:24 PM 75.2 °F 33.8 °F 22% 30.09 in - NNW 6.9 mph - N/A   Clear
4:25 PM 77.0 °F 33.8 °F 21% 30.06 in - NW 5.8 mph - N/A   Clear
5:24 PM 77.0 °F 32.0 °F 19% 30.06 in - WNW 6.9 mph - N/A   Clear
6:24 PM 75.2 °F 28.4 °F 18% 30.06 in - West 4.6 mph - N/A   Unknown
7:25 PM 73.4 °F 30.2 °F 20% 30.09 in - SW 3.5 mph - N/A   Clear
8:25 PM 71.6 °F 32.0 °F 23% 30.09 in - South 4.6 mph - N/A   Unknown
9:25 PM 69.8 °F 30.2 °F 23% 30.09 in - SSW 3.5 mph - N/A   Unknown
10:25 PM 66.2 °F 35.6 °F 32% 30.09 in - SSE 4.6 mph - N/A   Unknown
11:25 PM 60.8 °F 37.4 °F 42% 30.09 in - SSE 6.9 mph - N/A   Unknown